Location: Fond Mahaut
(18.0707°N, 63.0465°W)
Time: 16:06:03
(UTC+00:00)

GOES 2 Rocket - Pass Details

Date: 08 December 2019
Orbit: 569 x 1674 km, 28.4° (Epoch: 20 January)

Event Time Altitude Azimuth Distance (km) Brightness Sun altitude
Rises 23:13:43 0° 293° (WNW) 4,513 8.2 -22.5°
Reaches altitude 10° 23:17:05 10° 293° (WNW) 3,379 7.4 -23.2°
Maximum altitude 23:25:30 89° 205° (SSW) 1,082 4.1 -25.1°
Enters shadow 23:27:35 48° 116° (ESE) 1,290 4.3 -25.6°
